Location: Unspecified
(54.1780°N, 0.0000°E)
Time: 04:39:32
(UTC+00:00)

Transit 2A - Pass Details

Date: 17 June 2019
Orbit: 594 x 964 km, 66.7° (Epoch: 20 July)

Event Time Altitude Azimuth Distance (km) Brightness Sun altitude
Rises 01:32:43 0° 199° (SSW) 3,624 - -10.0°
Reaches altitude 10° 01:35:19 10° 194° (SSW) 2,694 - -9.8°
Exits shadow 01:35:43 12° 193° (SSW) 2,558 8.0 -9.8°
Maximum altitude 01:41:27 52° 121° (ESE) 1,186 6.9 -9.5°
Drops below altitude 10° 01:47:28 10° 47° (NE) 2,647 10.0 -9.1°
Sets 01:50:00 0° 43° (NE) 3,557 11.1 -9.0°
